sat.trackr.live / text

‹ back to catalog

STARLINK-30705

NORAD 57945 · 2023-148L

PAYLOAD ACTIVE UNKNOWN

§ Identity

Operator
Country
US
Launch date
2023-09-25
Launch site
AFWTR
Launch vehicle
Mass (kg)
RCS (m²)

Purposes: comms

External: N2YO · Heavens-Above · Gunter

§ Orbital elements

Epoch: 2026-09-20T12:29:51.345024Z

Period
93.85 min
Inclination
53.1604°
Eccentricity
0.0001545
Mean motion
15.34377419 rev/d
Perigee alt
461.7 km
Apogee alt
463.8 km
Semi-major
6,840.9 km
B*
-6.2848e-6
RAAN
195.6469°
Arg perigee
91.6637°
Mean anomaly
268.4543°
Rev number
16,830

§ Raw data

STARLINK-307051 57945U 23148L   26263.52073316 -.00000589  00000+0 -62848-5 0  99902 57945  53.1604 195.6469 0001545  91.6637 268.4543 15.34377419168302

JSON: /api/v1/satellites/57945 · /tle

For live sub-satellite position, see the globe view (requires WebGL).

§ Visibility from observer

Set your observer location to see the next 7 days of passes ≥ 10°. The values pass through the URL so the page stays shareable.

No JS? Fill the form by hand. The geolocation button needs JavaScript.